Location: *
(11.7485°N, 79.7483°E)
Time: 01:28:05
(UTC+00:00)

Shi Jian 4 - Pass Details

Date: 22 January 2021
Orbit: 312 x 17394 km, 28.9° (Epoch: 05 March)

Event Time Altitude Azimuth Distance (km) Brightness Sun altitude
Exits shadow 00:25:50 11° 254° (WSW) 1,215 5.6 -10.1°
Maximum altitude 00:28:02 63° 337° (NNW) 524 4.0 -9.6°
Drops below altitude 10° 00:33:22 10° 59° (ENE) 2,886 8.6 -8.4°
Sets 00:38:33 0° 61° (ENE) 5,327 10.0 -7.2°
